This is the latest recevied weather packets stored in our database for station/object KE8URB. If no packets are shown the sender has not sent any weather packets the latest 10 day(s).
| Time | Temp. | Humidity | Pressure | Rain* | Wind** | Luminosity | Snow |
|---|---|---|---|---|---|---|---|
| 1787594898 | 20.56° C | 68% | 1017.9 hPa | 0 mm | - | 96 W/m² | - |
| 1787594593 | 20° C | 67% | 1018 hPa | 0 mm | - | 74 W/m² | - |
| 1787594291 | 20.56° C | 67% | 1017.7 hPa | 0 mm | - | 100 W/m² | - |
| 1787593986 | 20.56° C | 69% | 1017.9 hPa | 0 mm | - | 92 W/m² | - |
| 1787593686 | 20° C | 66% | 1017.8 hPa | 0 mm | - | 76 W/m² | - |
| 1787593382 | 20° C | 66% | 1017.9 hPa | 0 mm | - | 86 W/m² | - |
| 1787593076 | 20° C | 67% | 1017.7 hPa | 0 mm | - | 54 W/m² | - |
| 1787592771 | 20° C | 66% | 1017.8 hPa | 0 mm | - | 71 W/m² | - |
| 1787592471 | 19.44° C | 69% | 1017.8 hPa | 0 mm | - | 52 W/m² | - |
| 1787592166 | 20.56° C | 67% | 1017.7 hPa | 0 mm | - | 85 W/m² | - |
| 1787591862 | 20° C | 66% | 1018 hPa | 0 mm | - | 51 W/m² | - |
| 1787591562 | 20° C | 65% | 1018 hPa | 0 mm | - | 48 W/m² | - |
| 1787591258 | 20° C | 65% | 1017.9 hPa | 0 mm | - | 42 W/m² | - |
| 1787590953 | 19.44° C | 65% | 1018.2 hPa | 0 mm | - | 43 W/m² | - |
| 1787590649 | 19.44° C | 66% | 1017.9 hPa | 0 mm | - | 42 W/m² | - |
| 1787590344 | 19.44° C | 65% | 1018 hPa | 0 mm | - | 41 W/m² | - |
| 1787590039 | 19.44° C | 66% | 1017.8 hPa | 0 mm | - | 40 W/m² | - |
| 1787589735 | 19.44° C | 67% | 1018.2 hPa | 0 mm | - | 65 W/m² | - |
| 1787589430 | 18.89° C | 65% | 1017.9 hPa | 0 mm | - | 43 W/m² | - |
| 1787589125 | 19.44° C | 66% | 1017.9 hPa | 0 mm | - | 42 W/m² | - |
| 1787588820 | 18.89° C | 67% | 1018 hPa | 0 mm | - | 170 W/m² | - |
| 1787588517 | 18.89° C | 68% | 1017.9 hPa | 0 mm | - | 55 W/m² | - |
| 1787588212 | 19.44° C | 71% | 1017.8 hPa | 0 mm | - | 45 W/m² | - |
| 1787587907 | 18.89° C | 69% | 1017.5 hPa | 0 mm | - | 46 W/m² | - |
| 1787587603 | 18.89° C | 69% | 1017.8 hPa | 0 mm | - | 46 W/m² | - |
* Rain latest hour (hover to see other rain measurements)
** Current wind speed in m/s (hover to see current wind gust speed)